Missoula, MT

11:00 AM MST on November 20, 2017 (GMT -0700)
Missoula International

Weather History for KMSO - March, 2014

Change the Weather History Date:

Wednesday, March 19, 2014

  Actual Average Record
Temperature  
Mean Temperature 37 °F 40 °F  
Max Temperature 49 °F 51 °F 70 °F (1910)
Min Temperature 24 °F 29 °F 8 °F (1974)
Degree Days  
Heating Degree Days 28 25  
Month to date heating degree days 557 532  
Since 1 July heating degree days 6067 5901  
Cooling Degree Days 0 0  
Month to date cooling degree days 0 0  
Year to date cooling degree days 0 0  
Moisture  
Dew Point 22 °F    
Average Humidity 61    
Maximum Humidity 88    
Minimum Humidity 34    
Precipitation  
Precipitation T in 0.03 in 0.39 in (1977)
Month to date precipitation 1.11 0.58  
Year to date precipitation 4.46 2.13  
Snow  
Snow 0.00 in - - ()
Month to date snowfall 2.9  
Year to date snowfall 49.6  
Since 1 July snowfall 63.5  
Snow Depth 0.00 in    
Sea Level Pressure  
Sea Level Pressure 30.11 in    
Wind  
Wind Speed 4 mph (South)    
Max Wind Speed 17 mph    
Max Gust Speed 21 mph    
Visibility 10 miles    
Events      
T = Trace of Precipitation, MM = Missing Value Source: NWS Daily Summary

Daily Weather History Graph

Daily Weather History Graph

Search for Another Location

Airport or City:

Trip Planner

Search our weather history database for the weather conditions in past years. The results will help you decide how hot, cold, wet, or windy it might be!

Date:

Astronomy

Mar. 19, 2014 Rise Set
Actual Time 7:41 AM MDT 7:47 PM MDT
Civil Twilight 7:10 AM MDT 8:18 PM MDT
Nautical Twilight 6:35 AM MDT 8:53 PM MDT
Astronomical Twilight 5:58 AM MDT 9:30 PM MDT
Moon 11:24 PM MDT (3/19) 8:57 AM MDT (3/19)
Length of Visible Light 13h 07m
Length of Day
12h 06m
Waning Gibbous, 91% of the Moon is Illuminated
Mar 19
Waning Gibbous
Mar 23
Last Quarter
Mar 30
New
Apr 7
First Quarter
Apr 15
Full

Hourly Weather History & Observations

Time (MDT) Temp. Windchill Dew Point Humidity Pressure Visibility Wind Dir Wind Speed Gust Speed Precip Events Conditions
12:53 AM 28.0 °F - 19.9 °F 72% 30.25 in 10.0 mi Calm Calm - N/A   Clear
1:53 AM 30.0 °F 24.1 °F 18.0 °F 61% 30.24 in 10.0 mi East 5.8 mph - N/A   Clear
2:53 AM 28.0 °F 21.7 °F 18.0 °F 66% 30.24 in 10.0 mi ESE 5.8 mph - N/A   Clear
3:53 AM 26.1 °F 20.5 °F 18.0 °F 71% 30.24 in 10.0 mi ESE 4.6 mph - N/A   Clear
4:53 AM 24.1 °F - 19.0 °F 81% 30.24 in 10.0 mi Calm Calm - N/A   Clear
5:53 AM 25.0 °F - 19.9 °F 81% 30.24 in 10.0 mi Calm Calm - N/A   Clear
6:53 AM 25.0 °F - 19.0 °F 78% 30.23 in 10.0 mi Calm Calm - N/A   Clear
7:53 AM 24.1 °F 19.7 °F 21.0 °F 88% 30.24 in 10.0 mi SSW 3.5 mph - N/A   Clear
8:53 AM 26.1 °F - 21.0 °F 81% 30.22 in 10.0 mi Calm Calm - N/A   Clear
9:53 AM 28.0 °F - 21.0 °F 75% 30.20 in 10.0 mi Calm Calm - N/A   Clear
10:53 AM 32.0 °F 24.2 °F 19.0 °F 59% 30.18 in 10.0 mi SE 9.2 mph - N/A   Clear
11:53 AM 35.1 °F 30.1 °F 19.0 °F 52% 30.14 in 10.0 mi East 5.8 mph - N/A   Clear
12:53 PM 39.0 °F 35.7 °F 19.0 °F 45% 30.10 in 10.0 mi SE 4.6 mph - N/A   Overcast
1:53 PM 44.1 °F - 19.9 °F 38% 30.05 in 10.0 mi Calm Calm - N/A   Mostly Cloudy
2:53 PM 45.0 °F - 21.0 °F 39% 30.02 in 10.0 mi Calm Calm - N/A   Overcast
3:53 PM 48.0 °F - 21.0 °F 34% 29.99 in 10.0 mi Calm Calm - N/A   Overcast
4:53 PM 46.9 °F - 19.9 °F 34% 29.99 in 10.0 mi NNW 4.6 mph - N/A   Overcast
5:53 PM 46.9 °F - 23.0 °F 39% 29.99 in 10.0 mi WSW 5.8 mph - N/A   Overcast
6:53 PM 46.9 °F - 26.1 °F 44% 29.98 in 10.0 mi WNW 17.3 mph - N/A   Overcast
7:53 PM 43.0 °F 38.8 °F 27.0 °F 53% 29.99 in 10.0 mi West 6.9 mph - N/A   Overcast
8:53 PM 39.0 °F 34.0 °F 28.9 °F 67% 30.00 in 10.0 mi WNW 6.9 mph - N/A   Mostly Cloudy
9:53 PM 37.9 °F 33.5 °F 30.0 °F 73% 29.99 in 10.0 mi NE 5.8 mph - N/A   Overcast
10:53 PM 39.0 °F 34.0 °F 32.0 °F 76% 29.97 in 10.0 mi South 6.9 mph - 0.00 in   Overcast
11:53 PM 39.0 °F 34.8 °F 30.9 °F 73% 29.95 in 10.0 mi WSW 5.8 mph - N/A   Overcast